Location: Columbus
(35.2256°N, 82.1549°W)
Time: 11:16:07
(UTC-04:00)

Hubble Space Telescope - Visible Passes

Search period start: 17 July 2025 00:00
Search period end: 27 July 2025 00:00
Orbit: 487 x 490 km, 28.5° (Epoch: 16 July)

Date Brightness Start Highest point End Pass type
(mag) Time Alt. Az. Time Alt. Az. Time Alt. Az.
18 Jul 3.2 22:43:46 10° SW 22:43:53 11° SW 22:43:53 11° SW visible
19 Jul 2.1 22:16:56 10° SW 22:19:04 21° SSW 22:19:04 21° SSW visible
20 Jul 1.8 21:50:07 10° SW 21:53:14 24° S 21:54:05 22° SSE visible
21 Jul 1.8 21:23:17 10° SW 21:26:26 24° S 21:28:57 13° ESE visible
21 Jul 3.1 23:02:44 10° WSW 23:03:16 13° WSW 23:03:16 13° WSW visible
22 Jul 2.2 22:35:56 10° WSW 22:38:00 23° SW 22:38:00 23° SW visible
23 Jul 1.6 22:09:07 10° WSW 22:12:27 28° S 22:12:38 28° S visible
24 Jul 1.7 21:42:18 10° WSW 21:45:37 28° S 21:47:13 21° SE visible
25 Jul 1.8 21:15:29 10° WSW 21:18:47 28° S 21:21:45 12° SE visible
25 Jul 3.3 22:55:58 10° SW 22:56:03 10° SW 22:56:03 10° SW visible
26 Jul 2.8 22:29:12 10° SW 22:30:35 14° SW 22:30:35 14° SW visible
